星链-31933 (STARLINK-31933 )

导读 | 星芒AI

STARLINK-31933 是 SpaceX Starlink 卫星互联网项目中的一颗低轨卫星,属于 Starlink 群体部署的一部分,旨在为全球用户提供高速互联网服务。该卫星于 2023 年发射,运行在约 550 公里的近地轨道上,采用先进的通信技术,支持宽带数据传输。Starlink 项目通过部署大量卫星,构建覆盖全球的通信网络,尤其服务于偏远和网络基础设施薄弱的地区。STARLINK-31933 在提升全球互联网接入能力方面发挥着重要作用。

基本信息
目录编号:
59874
目录名称:
STARLINK-31933
国际标识:
2024-098S
轨道中心:
EARTH
卫星名称:
星链-31933
卫星全名:
星链-31933 (STARLINK-31933 )
卫星状态:
在轨 (已飞行575 天)
发射日期:
2024-05-24 UTC
国别 :
美国 (US)
星等 :
--
轨道信息
数据来源 国际轨道数据 AOE轨道数据
星历时间 2025-12-20T02:23:28+0800
9小时前
查看轨道信息
2025-12-19T07:00:00+0800
1天前
查看轨道信息
半长轴 6861.244km 6861.186km
偏心率 0.0000578 0.000072
轨道倾角 43.005° 43.004°
近地点辐角 297.280° 262.465°
升交点赤经 9.300° 13.866°
平近点角 62.799° 329.185°
近地点 482.71km 482.556km
远地点 483.504km 483.546km
周期 94.268分钟 94.267分钟
每日圈数 15.275608 15.275802
详细信息
固有亮度:
5
最大亮度:
1.5
卫星平台:
Starlink v2.0 mini
覆盖范围:
全球
运营商:
太空探索技术公司
运营商所在国:
美国
制造商(研发单位):
太空探索技术公司
制造商所在国:
美国
使用方式:
暂无
卫星简介
星链(Starlink)计划是由太空探索技术公司(SpaceX)提出的一个巨型低轨卫星互联网星座项目,计划在2019年至2024年间在太空搭建由约1.2万颗卫星组成的“星链”网络,其中1584颗将部署在地球上空550千米处的近地轨道,并从2020年开始工作。该卫星仍在工作。
2D轨道图
3D轨道图
轨道高度分析图
轨道倾角分析图
轨道综合分析图
查看轨道综合分析图